SCP
0 0 0 0 0 0 0 0 0 0 0 0 0 0 0 0 0 0 0 0 0 0 0 0 0 0 -0 -0 -0 -0 -0 -0
0 0 0 0 0 0 0 0 0 0 0 0 0 0 0 0 0 0 0 0 0 1 0 0 0 0 0 0 0 -0 -0 -0
0 0 0 0 0 0 0 0 0 0 0 0 0 0 1 1 1 0 0 0 1 1 1 0 0 0 0 0 0 0 0 0
0 0 0 0 0 0 0 0 0 0 0 0 0 0 0 0 0 0 0 0 1 0 1 0 0 0 0 0 0 0 0 0
0 0 0 0 0 0 0 0 0 0 0 0 0 0 0 0 0 0 1 1 1 1 1 0 0 0 0 0 0 0 0 0
0 0 0 0 0 0 0 0 0 0 0 0 0 0 0 0 0 0 0 1 1 1 0 0 1 0 1 1 1 1 0 0
0 0 0 0 0 0 0 0 0 0 0 0 0 0 0 0 0 0 0 0 1 1 1 1 1 0 0 0 0 1 1 1
0 0 0 0 0 0 0 0 0 0 0 0 0 0 0 0 0 0 0 0 0 1 1 1 1 1 1 1 1 1 1 1
0 0 0 0 0 0 0 0 0 0 0 0 0 0 0 0 0 0 0 0 0 1 1 1 1 1 1 1 1 1 1 1
0 0 0 0 0 0 0 0 0 0 0 0 0 0 0 0 0 0 0 -0 0 0 1 1 1 2 2 1 1 1 1 1
0 0 0 0 0 0 0 0 0 0 0 0 0 0 0 0 -0 -0 -0 -0 -0 0 1 1 1 2 2 2 1 1 1 1
0 0 0 0 0 0 0 0 0 0 0 0 0 0 0 0 0 0 0 0 0 0 0 1 1 2 2 2 2 2 1 1
0 0 0 0 0 0 0 0 0 0 0 0 0 0 0 0 0 0 0 0 0 0 0 0 1 1 2 2 2 2 2 1
0 0 0 0 0 0 0 0 0 0 0 0 0 0 0 0 0 0 0 0 0 0 0 0 0 0 1 2 2 2 2 2
0 0 0 0 0 0 0 0 0 0 0 0 0 0 0 0 0 0 0 0 0 0 0 0 0 0 0 1 2 2 2 2
0 0 0 0 0 0 0 0 0 0 0 0 0 0 0 0 0 0 0 0 0 0 0 0 0 0 0 0 1 1 2 2
0 0 0 0 0 0 0 0 0 0 0 0 0 0 0 0 0 0 0 0 0 0 0 0 0 0 1 1 1 1 1 1
0 0 0 0 0 0 0 0 0 0 0 0 0 0 0 -0 -0 -0 -0 -0 -0 0 0 0 0 0 0 1 1 1 1 1
0 0 0 0 0 0 0 0 0 0 0 0 0 0 0 0 -0 -0 -0 -0 -0 0 0 0 0 0 0 0 0 1 1 1
0 0 0 0 0 0 0 0 0 0 -0 -0 -0 -0 -0 -0 -0 -0 -0 0 0 0 0 0 0 0 0 0 0 1 1 1
Wind_Speed_500mb
9 7 6 6 8 16 28 38 13 4 14 5 6 10 8 10 10 10 19 38 43 42 36 33 35 39 43 45 42 39 37 35
9 6 7 8 16 13 23 19 17 7 11 12 15 7 10 9 11 13 18 31 38 39 37 34 33 37 41 42 41 39 38 37
8 4 7 9 17 20 12 8 21 10 10 13 33 20 14 16 15 15 15 24 32 34 36 36 35 35 38 40 41 40 40 39
4 6 8 11 13 14 18 28 22 22 13 12 20 24 17 5 7 8 11 13 26 33 34 35 37 37 37 38 40 40 40 41
9 4 7 7 12 9 12 21 20 4 7 11 22 18 18 14 10 10 13 17 21 33 36 37 38 39 40 40 40 41 43 44
3 1 1 8 7 8 12 7 13 10 6 4 20 18 11 15 15 14 17 23 25 28 39 42 42 41 42 43 42 41 43 45
7 8 6 11 11 8 6 13 14 9 3 5 7 9 9 7 11 12 16 20 26 31 36 41 42 42 44 45 46 47 46 47
6 1 3 9 3 12 5 16 6 19 12 8 10 7 11 11 9 7 5 8 18 26 33 38 39 42 45 48 50 53 53 52
3 5 11 7 10 3 6 11 23 25 23 24 22 19 18 18 20 21 24 21 18 22 29 36 39 37 46 51 53 56 58 59
8 8 9 8 10 6 17 22 34 26 32 34 36 36 32 32 28 28 26 24 23 23 24 27 42 46 45 48 53 58 62 65
22 28 19 20 13 14 16 36 31 23 21 26 30 36 34 32 32 29 30 27 22 22 26 34 36 40 52 52 52 53 61 63
16 16 4 5 7 6 42 23 36 36 38 33 21 14 10 15 18 24 28 32 31 34 29 27 37 45 43 53 52 51 54 58
3 9 7 8 5 13 30 31 47 45 39 36 37 36 33 29 25 21 20 30 33 36 35 33 35 32 47 44 52 51 48 49
9 13 6 4 11 17 25 40 44 44 40 36 37 42 42 35 31 28 20 16 22 35 39 42 37 44 39 46 52 52 52 49
14 6 5 9 3 14 24 40 41 44 48 47 46 42 50 49 41 36 31 22 17 20 35 44 49 50 54 53 51 54 56 54
9 5 9 7 5 8 19 33 33 41 49 54 56 57 58 56 52 50 40 35 29 24 26 38 50 56 62 67 62 60 54 57
9 8 6 3 10 8 5 21 34 39 46 52 56 61 65 63 60 57 54 51 46 41 34 35 44 54 58 68 71 71 65 58
10 7 5 8 10 7 5 1 11 23 39 50 62 71 72 75 74 71 71 67 60 52 46 46 44 46 48 60 73 80 83 77
10 7 6 2 1 9 7 3 13 26 34 45 54 66 75 79 79 75 73 68 61 55 47 42 42 57 55 53 68 81 87 90
8 7 6 6 8 7 8 11 7 28 44 52 63 68 73 77 79 74 70 61 57 52 43 36 38 46 60 66 63 64 87 87
Wind_Direction_500mb
86 95 157 239 266 279 293 310 276 133 76 56 19 17 22 89 118 165 169 176 183 187 188 187 187 190 194 196 195 195 196 193
81 148 243 225 293 305 316 37 33 82 52 58 26 26 69 81 100 106 169 186 190 193 193 195 193 195 196 198 199 199 199 197
83 245 258 255 296 334 330 35 23 56 66 71 61 67 53 63 94 105 140 195 201 203 204 204 204 203 203 203 203 204 202 201
136 263 264 280 327 352 14 18 50 71 83 58 64 72 66 103 103 120 153 185 211 212 214 217 214 215 213 211 210 209 208 207
170 244 318 317 355 30 346 9 8 357 83 68 61 95 98 104 165 185 212 217 215 218 219 219 223 224 224 223 219 216 214 214
211 140 202 324 18 13 36 336 8 25 36 103 40 54 107 132 148 182 219 234 233 225 222 221 223 225 227 229 228 225 222 220
203 152 301 337 10 354 327 344 337 17 84 10 22 24 30 95 156 191 212 227 237 239 229 225 227 230 230 230 232 230 228 226
215 146 352 297 280 313 322 318 305 306 292 320 330 304 304 296 287 285 260 269 240 230 237 233 227 233 237 237 234 232 231 231
247 246 333 261 299 273 272 298 286 286 307 308 302 294 293 290 278 286 291 283 274 244 230 239 240 242 240 237 239 240 237 234
290 265 291 234 261 229 235 273 317 306 307 304 300 299 304 298 289 285 290 286 283 264 260 257 256 247 248 249 246 244 242 239
292 282 268 282 266 241 284 348 346 333 310 301 303 301 306 305 301 285 270 269 279 282 270 260 258 258 255 252 251 252 252 248
291 346 314 250 331 73 6 35 54 58 59 66 65 35 314 314 325 283 273 268 273 262 271 268 260 258 255 253 257 256 257 256
306 339 315 337 42 73 2 72 66 61 61 62 54 48 48 37 29 15 302 274 259 256 250 260 256 259 261 254 252 255 258 261
303 345 344 97 279 358 73 80 57 49 46 41 38 32 30 30 26 15 1 321 270 252 250 245 252 253 256 264 257 253 253 260
325 345 331 42 319 348 62 66 47 38 33 23 21 19 14 9 7 5 358 342 323 273 255 246 248 246 247 251 261 263 258 256
288 279 15 3 114 344 35 55 40 31 27 21 15 10 4 358 354 348 342 333 320 295 281 266 253 245 244 246 249 255 259 260
268 279 358 263 165 191 57 44 36 26 20 12 8 5 3 356 349 339 333 326 316 303 273 270 267 257 246 245 246 249 250 259
282 269 145 277 189 195 217 184 28 13 12 7 2 1 359 356 351 345 338 329 319 308 292 273 259 258 259 248 242 248 250 250
247 316 302 52 320 213 234 255 9 19 9 6 1 355 353 350 348 344 340 333 326 316 302 286 281 263 258 255 249 244 246 249
269 21 282 18 273 265 236 287 322 355 358 355 357 356 352 348 343 342 338 337 337 327 316 306 293 280 262 261 262 254 247 248
Wind_Speed_850mb
9 7 6 6 8 16 28 38 13 4 14 5 6 10 8 10 10 10 19 38 43 42 36 33 35 39 43 45 42 39 37 35
9 6 7 8 16 13 23 19 17 7 11 12 15 7 10 9 11 13 18 31 38 39 37 34 33 37 41 42 41 39 38 37
8 4 7 9 17 20 12 8 21 10 10 13 33 20 14 16 15 15 15 24 32 34 36 36 35 35 38 40 41 40 40 39
4 6 8 11 13 14 18 28 22 22 13 12 20 24 17 5 7 8 11 13 26 33 34 35 37 37 37 38 40 40 40 41
9 4 7 7 12 9 12 21 20 4 7 11 22 18 18 14 10 10 13 17 21 33 36 37 38 39 40 40 40 41 43 44
3 1 1 8 7 8 12 7 13 10 6 4 20 18 11 15 15 14 17 23 25 28 39 42 42 41 42 43 42 41 43 45
7 8 6 11 11 8 6 13 14 9 3 5 7 9 9 7 11 12 16 20 26 31 36 41 42 42 44 45 46 47 46 47
6 1 3 9 3 12 5 16 6 19 12 8 10 7 11 11 9 7 5 8 18 26 33 38 39 42 45 48 50 53 53 52
3 5 11 7 10 3 6 11 23 25 23 24 22 19 18 18 20 21 24 21 18 22 29 36 39 37 46 51 53 56 58 59
8 8 9 8 10 6 17 22 34 26 32 34 36 36 32 32 28 28 26 24 23 23 24 27 42 46 45 48 53 58 62 65
22 28 19 20 13 14 16 36 31 23 21 26 30 36 34 32 32 29 30 27 22 22 26 34 36 40 52 52 52 53 61 63
16 16 4 5 7 6 42 23 36 36 38 33 21 14 10 15 18 24 28 32 31 34 29 27 37 45 43 53 52 51 54 58
3 9 7 8 5 13 30 31 47 45 39 36 37 36 33 29 25 21 20 30 33 36 35 33 35 32 47 44 52 51 48 49
9 13 6 4 11 17 25 40 44 44 40 36 37 42 42 35 31 28 20 16 22 35 39 42 37 44 39 46 52 52 52 49
14 6 5 9 3 14 24 40 41 44 48 47 46 42 50 49 41 36 31 22 17 20 35 44 49 50 54 53 51 54 56 54
9 5 9 7 5 8 19 33 33 41 49 54 56 57 58 56 52 50 40 35 29 24 26 38 50 56 62 67 62 60 54 57
9 8 6 3 10 8 5 21 34 39 46 52 56 61 65 63 60 57 54 51 46 41 34 35 44 54 58 68 71 71 65 58
10 7 5 8 10 7 5 1 11 23 39 50 62 71 72 75 74 71 71 67 60 52 46 46 44 46 48 60 73 80 83 77
10 7 6 2 1 9 7 3 13 26 34 45 54 66 75 79 79 75 73 68 61 55 47 42 42 57 55 53 68 81 87 90
8 7 6 6 8 7 8 11 7 28 44 52 63 68 73 77 79 74 70 61 57 52 43 36 38 46 60 66 63 64 87 87
Wind_Direction_850mb
86 95 157 239 266 279 293 310 276 133 76 56 19 17 22 89 118 165 169 176 183 187 188 187 187 190 194 196 195 195 196 193
81 148 243 225 293 305 316 37 33 82 52 58 26 26 69 81 100 106 169 186 190 193 193 195 193 195 196 198 199 199 199 197
83 245 258 255 296 334 330 35 23 56 66 71 61 67 53 63 94 105 140 195 201 203 204 204 204 203 203 203 203 204 202 201
136 263 264 280 327 352 14 18 50 71 83 58 64 72 66 103 103 120 153 185 211 212 214 217 214 215 213 211 210 209 208 207
170 244 318 317 355 30 346 9 8 357 83 68 61 95 98 104 165 185 212 217 215 218 219 219 223 224 224 223 219 216 214 214
211 140 202 324 18 13 36 336 8 25 36 103 40 54 107 132 148 182 219 234 233 225 222 221 223 225 227 229 228 225 222 220
203 152 301 337 10 354 327 344 337 17 84 10 22 24 30 95 156 191 212 227 237 239 229 225 227 230 230 230 232 230 228 226
215 146 352 297 280 313 322 318 305 306 292 320 330 304 304 296 287 285 260 269 240 230 237 233 227 233 237 237 234 232 231 231
247 246 333 261 299 273 272 298 286 286 307 308 302 294 293 290 278 286 291 283 274 244 230 239 240 242 240 237 239 240 237 234
290 265 291 234 261 229 235 273 317 306 307 304 300 299 304 298 289 285 290 286 283 264 260 257 256 247 248 249 246 244 242 239
292 282 268 282 266 241 284 348 346 333 310 301 303 301 306 305 301 285 270 269 279 282 270 260 258 258 255 252 251 252 252 248
291 346 314 250 331 73 6 35 54 58 59 66 65 35 314 314 325 283 273 268 273 262 271 268 260 258 255 253 257 256 257 256
306 339 315 337 42 73 2 72 66 61 61 62 54 48 48 37 29 15 302 274 259 256 250 260 256 259 261 254 252 255 258 261
303 345 344 97 279 358 73 80 57 49 46 41 38 32 30 30 26 15 1 321 270 252 250 245 252 253 256 264 257 253 253 260
325 345 331 42 319 348 62 66 47 38 33 23 21 19 14 9 7 5 358 342 323 273 255 246 248 246 247 251 261 263 258 256
288 279 15 3 114 344 35 55 40 31 27 21 15 10 4 358 354 348 342 333 320 295 281 266 253 245 244 246 249 255 259 260
268 279 358 263 165 191 57 44 36 26 20 12 8 5 3 356 349 339 333 326 316 303 273 270 267 257 246 245 246 249 250 259
282 269 145 277 189 195 217 184 28 13 12 7 2 1 359 356 351 345 338 329 319 308 292 273 259 258 259 248 242 248 250 250
247 316 302 52 320 213 234 255 9 19 9 6 1 355 353 350 348 344 340 333 326 316 302 286 281 263 258 255 249 244 246 249
269 21 282 18 273 265 236 287 322 355 358 355 357 356 352 348 343 342 338 337 337 327 316 306 293 280 262 261 262 254 247 248